Location: Asheville, NC
(35.6000°N, 82.5500°W)
Time: 10:58:23
(UTC-04:00)

Vanguard 2 - Pass Details

Date: 15 February 2018
Orbit: 552 x 2940 km, 32.9° (Epoch: 22 May)

Event Time Altitude Azimuth Distance (km) Brightness Sun altitude
Rises 22:49:23 0° 272° (W) 3,342 - -55.2°
Reaches altitude 10° 22:52:15 10° 267° (W) 2,170 - -55.7°
Maximum altitude 22:56:49 51° 192° (SSW) 735 - -56.4°
Drops below altitude 10° 23:00:38 10° 115° (ESE) 1,813 - -57.0°
Sets 23:02:49 0° 110° (ESE) 2,727 - -57.4°
